This demonstration page uses our WeatherBlox Daily Observations layout. Learn more.

Left ArrowRight Arrow

Hourly Observations for December 4, 2015

Temp ( °F °C ) Dew Point ( °F °C ) Humidity (%) Winds ( mph kmh ) Pressure ( in mb ) Visibility ( mi km ) Precip ( " mm )
12:53 am 00:53 Clear 25 -3.9 22 -5.6 88 88 Calm 30.50 1033 7 11 0.00 0.00
1:53 am 01:53 Clear with Mist and Fog 27 -2.8 25 -3.9 92 92 Calm 30.50 1033 6 10 0.00 0.00
2:53 am 02:53 Clear with Mist and Fog 24 -4.4 22 -5.6 91 91 Calm 30.51 1033 3 4 0.00 0.00
2:58 am 02:58 Mostly Clear with Mist and Fog 24 -4.4 22 -5.6 91 91 Calm 30.53 1034 3 5 0.00 0.00
3:02 am 03:02 Partly Cloudy with Mist and Fog 24 -4.4 22 -5.6 91 91 Calm 30.53 1034 2 3 0.00 0.00
3:04 am 03:04 Mostly Cloudy with Mist and Fog 24 -4.4 22 -5.6 91 91 Calm 30.53 1034 1 1 0.00 0.00
3:53 am 03:53 Mostly Cloudy with Freezing Fog 23 -5 22 -5.6 96 96 Calm 30.52 1033 0 0 0.00 0.00
4:53 am 04:53 Mostly Cloudy with Freezing Fog 24 -4.4 23 -5 96 96 Calm 30.53 1034 0 0 0.00 0.00
5:53 am 05:53 Mostly Cloudy with Freezing Fog 25 -3.9 24 -4.4 96 96 Calm 30.54 1034 0 0 0.00 0.00
6:53 am 06:53 Mostly Cloudy with Freezing Fog 25 -3.9 24 -4.4 96 96 Calm 30.56 1035 0 0 0.00 0.00
7:53 am 07:53 Mostly Cloudy with Freezing Fog 25 -3.9 24 -4.4 96 96 NNW 3 6 30.60 1036 5 8 0.00 0.00
8:53 am 08:53 Cloudy with Mist and Fog 29 -1.7 28 -2.2 96 96 SSW 3 6 30.62 1037 1 1 0.00 0.00
9:02 am 09:02 Cloudy with Mist and Fog 29 -1.7 28 -2.2 96 96 SW 5 7 30.62 1037 1 2 0.00 0.00
9:13 am 09:13 Cloudy with Mist and Fog 29 -1.7 29 -1.7 100 100 VRB 3 6 30.65 1038 1 1 0.00 0.00
9:30 am 09:30 Cloudy with Mist and Fog 30 -1.1 29 -1.7 96 96 SW 3 6 30.65 1038 2 2 0.00 0.00
9:53 am 09:53 Cloudy with Mist and Fog 29 -1.7 28 -2.2 96 96 WNW 6 9 30.64 1038 1 2 0.00 0.00
10:22 am 10:22 Cloudy with Mist and Fog 30 -1.1 29 -1.7 96 96 VRB 5 7 30.65 1038 2 3 0.00 0.00
10:44 am 10:44 Cloudy with Mist and Fog 30 -1.1 30 -1.1 100 100 SW 6 9 30.65 1038 2 3 0.00 0.00
10:53 am 10:53 Cloudy with Mist and Fog 30 -1.1 30 -1.1 100 100 WSW 5 7 30.66 1038 2 3 0.00 0.00
11:53 am 11:53 Cloudy with Mist and Fog 31 -0.6 30 -1.1 96 96 WSW 5 7 30.66 1038 3 4 0.00 0.00
12:28 pm 12:28 Cloudy with Mist and Fog 31 -0.6 30 -1.1 96 96 Calm 30.65 1038 3 5 0.00 0.00
12:53 pm 12:53 Cloudy with Mist and Fog 31 -0.6 30 -1.1 96 96 WNW 3 6 30.63 1037 3 5 0.00 0.00
1:15 pm 13:15 Cloudy with Mist and Fog 31 -0.6 30 -1.1 96 96 WSW 3 6 30.65 1038 4 6 0.00 0.00
1:53 pm 13:53 Cloudy with Mist and Fog 32 0 30 -1.1 92 92 SSW 5 7 30.65 1038 4 6 0.00 0.00
2:22 pm 14:22 Cloudy with Mist and Fog 32 0 30 -1.1 92 92 WSW 3 6 30.65 1038 5 8 0.00 0.00
2:53 pm 14:53 Cloudy with Mist and Fog 32 0 30 -1.1 92 92 W 3 6 30.63 1037 5 8 0.00 0.00
3:53 pm 15:53 Cloudy with Mist and Fog 32 0 30 -1.1 92 92 Calm 30.65 1038 6 10 0.00 0.00
4:46 pm 16:46 Cloudy with Mist and Fog 33 0.6 30 -1.1 89 89 Calm 30.65 1038 6 10 0.00 0.00
4:53 pm 16:53 Cloudy with Mist and Fog 33 0.6 30 -1.1 89 89 N 6 9 30.66 1038 6 10 0.00 0.00
5:53 pm 17:53 Cloudy 33 0.6 30 -1.1 89 89 NNW 5 7 30.66 1038 7 11 0.00 0.00
6:17 pm 18:17 Cloudy 33 0.6 29 -1.7 85 85 Calm 30.68 1039 7 11 0.00 0.00
6:53 pm 18:53 Cloudy 33 0.6 30 -1.1 89 89 N 3 6 30.66 1038 7 11 0.00 0.00
7:53 pm 19:53 Cloudy with Mist and Fog 32 0 29 -1.7 88 88 Calm 30.68 1039 6 10 0.00 0.00
8:53 pm 20:53 Cloudy with Mist and Fog 32 0 29 -1.7 88 88 Calm 30.68 1039 6 10 0.00 0.00
9:53 pm 21:53 Cloudy with Mist and Fog 32 0 29 -1.7 88 88 Calm 30.68 1039 5 8 0.00 0.00
10:44 pm 22:44 Cloudy with Mist and Fog 31 -0.6 29 -1.7 92 92 NE 5 7 30.71 1040 5 8 0.00 0.00
10:53 pm 22:53 Cloudy with Mist and Fog 31 -0.6 29 -1.7 92 92 NNE 5 7 30.69 1039 5 8 0.00 0.00
11:13 pm 23:13 Cloudy with Mist and Fog 30 -1.1 28 -2.2 92 92 Calm 30.71 1040 5 8 0.00 0.00
11:53 pm 23:53 Cloudy with Mist and Fog 31 -0.6 28 -2.2 89 89 Calm 30.69 1039 4 6 0.00 0.00

Powered by AerisWeather